www.pogodaiklimat.ru

Погода и климат >> Архив погоды >> Чехия >> Либерец


ПОГОДА в Либереце

  • Прогноз погоды в Либереце
  • Монитор погоды в Либереце

АРХИВ ПОГОДЫ в Либереце

Время (UTC), дата Ветер
(напр.,м/с)
 
Видим.   Явления Облачность Т
(С)
Тd
(С)
f
(%)
Тe
(С)
Тes
(С)
Комфортность P
(гПа)
Po
(гПа)
Тmin
(С)
Tmax
(С)
R
(мм)
R24
(мм)
S
(см)
13 18.08 ЮЗ 3 45 км 3/3 1500 м
[Cu hum]
+29.0 +12.7 37 +30 +37 жарко 1007.6 963.3
14 18.08 Ю 6 50 км 3/3 1500 м
[Cu hum]
+28.8 +12.1 36 +30 +32 жарко 1007.5 963.2
15 18.08 ЮЗ 7
{13}
50 км 3/3 1500 м
[Cu hum]
+29.6 +12.2 34 +30 +31 жарко 1007.4 963.2
16 18.08 ЮЗ 6 35 км н/о +29.5 +12.0 34 +30 +30 жарко 1007.2 963.0
17 18.08 ЮЗ 4
{11}
35 км н/о +28.8 +11.9 35 +30 +30 жарко 1007.4 963.1
18 18.08 Ю 3
{13}
40 км 1/1 1500 м
[Cu hum Ac trans]
+27.3 +12.9 41 +29 +29 жарко 1007.4 962.9 +29.8
19 18.08 Ю 3 40 км 1/1 1500 м
[Cu med, cong Ac As]
+25.3 +12.3 44 +27 +27 жарко 1008.2 963.3
20 18.08 Ю 3 35 км 6/1 1500 м
[Cu med, cong Cs]
+26.5 +13.0 43 +28 +28 жарко 1007.7 963.0
21 18.08 Ю 3 35 км н/о +26.4 +13.7 46 +29 +29 жарко 1008.2 963.5
22 18.08 СЗ 2
{18}
35 км ливневой дождь н/о +17.7 +14.8 83 +18 +18 1013.0 966.8
23 18.08 ЮЗ 3 35 км слаб. ливневой дождь н/о +17.4 +15.7 90 +17 +17 1012.1 965.9
00 19.08 ЮВ 1
{18}
35 км {ливн. осадки, дождь} н/о +16.4 +15.0 91 +17 +17 1012.0 965.7 1
01 19.08 З 1 30 км н/о +16.6 +15.7 94 +17 +17 1012.4 966.1
02 19.08 ЮВ 1 35 км н/о +17.3 +16.2 93 +18 +18 1012.8 966.6
03 19.08 С 1 35 км в посл. час дождь {ливн. осадки} н/о +16.6 +15.4 93 +17 +17 1013.5 967.1
04 19.08 В 1 12 км н/о +16.2 +15.3 94 +17 +17 1013.8 967.4
05 19.08 ЮВ 1 23 км слаб. ливневой дождь н/о +17.0 +16.3 96 +18 +18 1015.2 968.8
06 19.08 В 2 12 км слаб. ливневой дождь 10/8 210 м
[Cu Sc Ac As]
+17.5 +16.3 93 +18 +18 1015.0 968.7 +15.1 1
07 19.08 В 2 13 км слаб. ливневой дождь 10/8 240 м
[Cu Sc Ac As]
+17.9 +16.7 93 +18 +19 1015.3 969.1
08 19.08 Ю 2 18 км слаб. ливневой дождь 9/6 360 м
[Cu Sc Ac As Ci fib]
+18.0 +16.7 92 +19 +21 1015.7 969.5
09 19.08 ЮВ 1 25 км в посл. час ливневой дождь 10/8 400 м
[Cu Sc Ac As]
+19.3 +15.6 79 +22 +23 комфорт 1015.9 969.8
10 19.08 Ю 2 30 км 10/8 400 м
[Cu Sc Ac As]
+19.4 +15.1 76 +22 +22 комфорт 1016.4 970.3
11 19.08 ЮВ 3 30 км 9/8 360 м
[Cu Sc Ac As Ci fib]
+20.0 +15.6 76 +23 +24 комфорт 1016.4 970.4
12 19.08 ЮВ 2 30 км {ливн. осадки} 10/8 360 м
[Cu Sc Ac As]
+20.0 +15.1 73 +23 +24 комфорт 1016.9 970.9 2
13 19.08 Ю 3 35 км 10/9 400 м
[Cu Sc Ac As]
+20.2 +14.6 70 +23 +23 комфорт 1017.1 971.1
14 19.08 СЗ 3 15 км в посл. час ливневой дождь 10/9 90 м
[Cu Sc Ac As]
+16.0 +14.5 91 +16 +16 1018.9 972.2
15 19.08 С 1 35 км {ливн. осадки} 9/6 210 м
[Cu Sc Ac As Ci fib]
+17.7 +13.1 74 +19 +20 1018.7 972.2
16 19.08 Ю 1 35 км н/о +18.5 +11.7 65 +20 +20 1018.4 972.0
17 19.08 Ю 1 35 км н/о +18.8 +11.7 63 +21 +21 комфорт 1018.5 972.2
18 19.08 Ю 1 45 км 6/0 2000 м
[Ac As Ci fib]
+16.9 +12.3 74 +18 +18 1018.8 972.2 +20.9 3
19 19.08 штиль 0 40 км 5/0
[Ac trans Ci fib]
+14.7 +12.4 86 +14 +14 1019.7 972.7
20 19.08 ЮЗ 1 40 км 6/0
[Ac As Ci fib]
+13.1 +10.6 85 +13 +13 1020.3 973.0
21 19.08 Ю 1 35 км н/о +12.2 +10.0 86 +12 +12 1020.8 973.3
22 19.08 штиль 0 2100 м дымка н/о +11.2 +10.0 92 +10 +10 1021.2 973.5
23 19.08 штиль 0 5000 м дымка н/о +11.9 +11.0 94 +11 +11 1021.1 973.6
00 20.08 В 1 10 км в посл. час туман {дымка} н/о +11.5 +10.6 94 +11 +11 1021.1 973.5
01 20.08 штиль 0 20 км н/о +12.1 +11.4 95 +11 +11 1021.2 973.7
02 20.08 Ю 1 26 км н/о +11.9 +11.2 95 +12 +12 1021.4 973.8
03 20.08 Ю 1 29 км {дымка} н/о +12.5 +11.8 95 +12 +12 1021.2 973.8
04 20.08 штиль 0 26 км н/о +12.4 +11.7 95 +12 +12 1021.6 974.1
05 20.08 В 2 30 км н/о +13.7 +12.9 95 +13 +13 1021.3 974.1
06 20.08 СВ 1 40 км 10/0 2000 м
[Ac As Ci fib]
+15.3 +13.9 91 +16 +17 1021.3 974.3 +10.5
07 20.08 СЗ 1 40 км 9/6 1080 м
[Sc Ac As Ci fib]
+15.4 +12.9 85 +16 +17 1021.5 974.5
08 20.08 З 1 40 км 9/4 1080 м
[Sc Ac As Ci fib]
+17.3 +13.4 78 +18 +22 1021.5 974.8
09 20.08 В 1 40 км 8/0 2000 м
[Ac As Ci fib]
+20.5 +11.8 57 +24 +30 комфорт 1020.8 974.6
10 20.08 ЮВ 2 40 км 8/3 1500 м
[Cu med, cong Ac As Ci fib]
+22.3 +10.0 46 +24 +30 комфорт 1020.6 974.7
11 20.08 ЮВ 2 40 км 8/5 1300 м
[Cu Sc Ac trans Ci fib]
+23.0 +9.4 42 +25 +29 комфорт 1020.0 974.2
12 20.08 СЗ 1 40 км 9/8 1200 м
[Cu Sc Ac As Ci fib]
+23.9 +11.8 47 +26 +28 жарко 1019.7 974.1
13 20.08 С 1 40 км 10/8 1300 м
[Cu Sc Ac As]
+23.1 +11.4 48 +25 +26 комфорт 1019.4 973.7
14 20.08 СЗ 2 30 км слаб. ливневой дождь 10/8 1200 м
[Cu Sc Ac As]
+22.4 +12.2 52 +25 +25 комфорт 1019.4 973.6
15 20.08 С 1 8000 м слаб. ливневой дождь 10/8 1080 м
[Cu Sc Ac As]
+18.0 +14.1 78 +19 +19 1020.7 974.2
16 20.08 СЗ 1 10 км слаб. дождь н/о +17.2 +15.6 90 +18 +18 1020.6 974.0
17 20.08 СЗ 1 11 км слаб. дождь н/о +17.3 +15.8 91 +18 +18 1020.4 973.8
18 20.08 СЗ 3 30 км в посл. час ливневой дождь 10/6 360 м
[Sc diur, vesp Ac As]
+17.1 +15.8 92 +17 +17 1020.4 973.8 +24.7 5
19 20.08 СЗ 2 15 км слаб. дождь 10/8 90 м
[Sc Ac As]
+16.8 +15.6 93 +17 +17 1020.7 974.0
20 20.08 СЗ 3 4000 м слаб. дождь 10/10 90 м
[Sc]
+16.6 +15.9 96 +16 +16 1021.0 974.3
21 20.08 З 5 4800 м сильн. дождь {ливн. осадки, морось} н/о +15.0 +14.1 94 +13 +13 1021.7 974.7
22 20.08 СЗ 2 35 км в посл. час дождь {ливн. осадки} н/о +15.1 +14.4 96 +15 +15 1022.3 975.3
23 20.08 СЗ 2 15 км слаб. ливневой дождь н/о +14.3 +13.1 92 +14 +14 1023.3 976.1
00 21.08 СЗ 2 9000 м слаб. дождь {морось} н/о +13.5 +12.4 93 +13 +13 1024.1 976.7 8
01 21.08 СЗ 2 6000 м слаб. дождь н/о +12.9 +11.8 93 +12 +12 1024.5 977.0
02 21.08 СЗ 3 9000 м дождь н/о +12.8 +12.0 95 +11 +11 1025.5 977.9
03 21.08 СЗ 3 8000 м слаб. дождь н/о +12.7 +11.9 95 +11 +11 1025.6 978.0
04 21.08 СЗ 3 10 км в посл. час дождь {ливн. осадки} н/о +12.5 +11.8 95 +11 +11 1026.6 978.9
05 21.08 СЗ 2 10 км н/о +12.4 +11.7 95 +11 +11 1027.0 979.3
06 21.08 СЗ 1 10 км 9/9 240 м
[Frnb Ac As]
+12.9 +12.1 95 +13 +13 1027.8 980.1 +12.3 12
07 21.08 СЗ 3 10 км 9/8 300 м
[Frnb Ac As]
+13.3 +11.9 91 +12 +12 1028.1 980.5
08 21.08 СЗ 2 22 км 6/1 240 м
[Cu hum Ac As Ci fib]
+14.7 +11.0 78 +14 +19 1028.2 980.8
09 21.08 СЗ 2 30 км 3/1 800 м
[Cu hum Ac trans Ci fib]
+16.7 +10.0 65 +17 +25 1027.7 980.6
10 21.08 С 2 30 км 3/3 840 м
[Cu hum]
+18.4 +9.0 54 +19 +28 1027.5 980.7
11 21.08 СЗ 3 35 км 8/5 1080 м
[Cu med, cong Ac As Ci fib]
+19.8 +8.5 48 +21 +25 комфорт 1027.3 980.7
12 21.08 СЗ 2 35 км 8/6 1200 м
[Cu med, cong Ac As Ci fib]
+18.8 +7.1 46 +20 +23 1027.5 980.7
13 21.08 СЗ 1 35 км 5/4 1350 м
[Cu med, cong Ac As Ci fib]
+20.2 +7.3 43 +22 +29 комфорт 1027.2 980.6
14 21.08 С 2 35 км 4/3 1500 м
[Cu med, cong Ci fib]
+19.9 +5.9 40 +21 +26 комфорт 1027.0 980.4
15 21.08 С 2 40 км 3/1 1500 м
[Cu med, cong Ci fib]
+20.6 +6.1 39 +22 +26 комфорт 1027.1 980.6
16 21.08 С 1 35 км н/о +20.3 +5.9 39 +22 +22 комфорт 1027.0 980.4
17 21.08 СЗ 1 35 км н/о +19.8 +6.4 42 +22 +22 комфорт 1027.1 980.5
18 21.08 ЮЗ 2 35 км 1/0 2000 м
[Ac As]
+14.9 +7.0 59 +15 +15 1028.0 980.6 +21.2
19 21.08 З 2 30 км 1/0
[Ci fib]
+13.7 +8.4 70 +13 +13 1028.7 981.1
20 21.08 штиль 0 25 км ясно +12.1 +8.6 79 +12 +12 1029.3 981.4
21 21.08 В 1 24 км н/о +11.3 +8.9 85 +11 +11 1029.5 981.4
22 21.08 Ю 1 19 км н/о +10.6 +8.9 89 +10 +10 1029.8 981.6
23 21.08 В 1 19 км н/о +10.7 +9.4 92 +10 +10 1029.7 981.5
00 22.08 В 1 10 км {дымка} н/о +10.1 +9.0 93 +10 +10 1029.9 981.6
01 22.08 В 1 18 км н/о +10.2 +9.1 93 +10 +10 1029.4 981.2
02 22.08 СВ 1 15 км н/о +8.7 +7.7 93 +8 +8 1029.5 981.0
03 22.08 штиль 0 17 км {дымка} н/о +9.2 +8.2 93 +8 +8 1029.3 980.9
04 22.08 ЮЗ 1 8000 м дымка н/о +8.7 +7.9 95 +8 +8 1029.5 981.0
05 22.08 В 1 12 км н/о +9.7 +9.0 95 +9 +9 1029.3 981.0
06 22.08 В 1 25 км 5/0
[Ac As Ci fib]
+11.1 +10.2 94 +11 +13 1029.1 981.0 +8.0
07 22.08 Ю 1 35 км 1/0
[Ci fib]
+16.3 +12.1 76 +17 +22 1028.0 980.9
08 22.08 СЗ 2 35 км 1/1 1110 м
[Cu hum Ci fib]
+17.8 +8.7 55 +18 +25 1027.5 980.6
09 22.08 СЗ 2 35 км 4/4 1300 м
[Cu hum Ac As]
+19.5 +6.9 44 +21 +27 комфорт 1027.3 980.6
10 22.08 СЗ 1 40 км 6/6 1500 м
[Cu med, cong]
+20.0 +7.6 45 +22 +28 комфорт 1027.0 980.4
11 22.08 Ю 2 40 км 5/5 1500 м
[Cu med, cong]
+20.6 +7.4 42 +22 +29 комфорт 1026.4 979.9
12 22.08 ЮВ 2 40 км 5/5 1500 м
[Cu med, cong]
+21.2 +8.5 44 +22 +28 комфорт 1025.9 979.6
13 22.08 Ю 2 40 км 5/5 1500 м
[Cu med, cong]
+22.4 +7.3 38 +23 +29 комфорт 1025.3 979.2
14 22.08 Ю 2 40 км 5/5 1500 м
[Cu med, cong]
+22.8 +7.4 37 +24 +27 комфорт 1024.8 978.7
15 22.08 ЮЗ 2 40 км 5/5 1500 м
[Cu med, cong]
+21.5 +8.4 43 +23 +25 комфорт 1024.9 978.7
16 22.08 Ю 2 35 км н/о +20.6 +9.6 49 +23 +23 комфорт 1025.0 978.6
17 22.08 ЮВ 2 35 км н/о +20.6 +9.2 48 +23 +23 комфорт 1024.9 978.5
18 22.08 ЮВ 1 35 км 4/4 1500 м
[Cu hum]
+17.3 +9.5 60 +18 +18 1025.8 978.9 +23.4
19 22.08 ЮВ 1 35 км 1/1 1470 м
[Cu hum]
+15.1 +9.6 70 +16 +16 1026.9 979.6
20 22.08 ЮВ 2 30 км ясно +14.7 +10.6 76 +14 +14 1027.4 980.0
21 22.08 В 1 30 км н/о +13.8 +11.0 83 +14 +14 1027.6 980.1
22 22.08 В 1 21 км н/о +12.8 +10.6 86 +13 +13 1027.7 980.0
23 22.08 В 1 14 км н/о +11.8 +10.2 90 +12 +12 1027.8 979.9
00 23.08 СВ 1 11 км н/о +10.4 +9.0 91 +10 +10 1028.0 979.9
01 23.08 В 1 10 км н/о +10.0 +9.0 93 +9 +9 1028.0 979.8
02 23.08 В 1 12 км н/о +10.3 +9.4 94 +10 +10 1028.1 979.9
03 23.08 ЮВ 1 16 км {дымка} н/о +9.1 +8.2 94 +8 +8 1028.2 979.8
04 23.08 Ю 1 7000 м дымка н/о +9.2 +8.4 95 +8 +8 1028.5 980.1
05 23.08 В 1 10 км н/о +10.5 +9.7 95 +10 +10 1028.4 980.3
06 23.08 В 1 35 км ясно +14.1 +10.9 81 +14 +17 1027.7 980.2 +8.4
07 23.08 В 1 35 км 3/3 900 м
[Cu med, cong]
+17.7 +10.3 62 +19 +23 1027.1 980.2
08 23.08 СЗ 1 35 км 4/4 1200 м
[Cu med, cong]
+19.8 +9.7 52 +22 +27 комфорт 1026.8 980.2
09 23.08 З 2 35 км 4/4 1200 м
[Cu med, cong]
+20.5 +7.6 43 +22 +28 комфорт 1026.6 980.1
10 23.08 СЗ 2 35 км 3/3 1500 м
[Cu med, cong]
+21.7 +7.6 40 +23 +31 комфорт 1026.3 980.0
11 23.08 ЮЗ 2 40 км 3/3 1500 м
[Cu med, cong]
+22.5 +7.6 38 +23 +32 комфорт 1025.7 979.6
12 23.08 З 2 40 км 3/3 1500 м
[Cu hum]
+23.2 +8.2 38 +24 +33 комфорт 1025.2 979.2
13 23.08 В 2 40 км 1/1 1500 м
[Cu hum]
+23.7 +8.6 38 +24 +34 комфорт 1024.4 978.5
14 23.08 С 1 40 км 1/1 1500 м
[Cu hum]
+24.7 +9.8 39 +26 +33 жарко 1023.9 978.2
15 23.08 СЗ 2 40 км 3/3 1440 м
[Cu med, cong]
+25.0 +11.0 41 +26 +29 жарко 1023.6 978.0
16 23.08 СЗ 2 35 км н/о +24.1 +11.7 46 +26 +26 жарко 1023.5 977.8
17 23.08 СЗ 1 35 км н/о +23.1 +11.5 48 +25 +25 комфорт 1023.6 977.7
18 23.08 З 1 40 км 3/3 1000 м
[Sc diur, vesp]
+19.7 +11.9 61 +22 +22 комфорт 1024.0 977.6 +25.3
19 23.08 Ю 1 40 км 1/1 1000 м
[Sc diur, vesp Ci fib]
+16.1 +10.4 69 +17 +17 1025.3 978.2
20 23.08 ЮВ 1 30 км ясно +17.1 +13.1 77 +18 +18 1025.2 978.3
21 23.08 В 1 29 км н/о +16.4 +12.9 80 +17 +17 1025.3 978.3
22 23.08 В 1 20 км н/о +14.9 +12.2 84 +15 +15 1025.3 978.1
23 23.08 В 1 14 км н/о +13.7 +12.0 89 +14 +14 1025.4 978.0
00 24.08 штиль 0 6000 м дымка н/о +12.7 +11.3 91 +12 +12 1025.3 977.7
01 24.08 Ю 1 2200 м дымка н/о +12.3 +11.2 93 +12 +12 1025.4 977.7
02 24.08 В 1 4900 м дымка н/о +11.4 +10.5 94 +11 +11 1025.4 977.6
03 24.08 В 1 11 км {дымка} н/о +11.8 +11.1 95 +12 +12 1025.3 977.5
04 24.08 В 1 3500 м дымка н/о +10.7 +10.0 95 +10 +10 1025.4 977.4
05 24.08 В 1 7000 м дымка н/о +12.7 +12.0 96 +13 +13 1024.9 977.3
06 24.08 В 1 25 км 8/0
[Ci fib]
+16.3 +13.5 83 +17 +19 1024.0 977.1 +10.4
07 24.08 В 1 30 км 6/0
[Ci fib]
+19.8 +12.6 63 +23 +27 комфорт 1023.3 976.9
08 24.08 З 1 35 км 6/0
[Ci fib]
+20.7 +11.6 56 +24 +31 комфорт 1022.9 976.7
09 24.08 З 2 35 км 8/0
[Ci]
+22.8 +11.7 50 +25 +34 комфорт 1022.5 976.6
10 24.08 СЗ 2 35 км 8/3 1300 м
[Cu med, cong Ci fib]
+24.1 +12.3 48 +26 +33 жарко 1022.2 976.5
11 24.08 СЗ 3 35 км 9/4 1300 м
[Cu med, cong Ci]
+24.7 +13.0 48 +27 +32 жарко 1021.8 976.2
12 24.08 СЗ 1 35 км 9/6 1110 м
[Cu Sc Ci fib]
+25.9 +14.2 48 +28 +33 жарко 1021.3 976.0
13 24.08 С 1 35 км 9/6 1350 м
[Cu med, cong Ci fib]
+25.9 +13.9 47 +28 +32 жарко 1021.1 975.8
14 24.08 СЗ 1 35 км 9/4 1350 м
[Cu med, cong Ac trans Ci fib]
+26.2 +14.4 48 +29 +32 жарко 1020.8 975.5
15 24.08 СЗ 1 35 км 9/4 1350 м
[Cu med, cong Ci fib]
+26.3 +14.3 48 +29 +31 жарко 1020.2 975.0
16 24.08 СЗ 1 35 км н/о +25.6 +15.1 52 +28 +28 жарко 1020.0 974.7
17 24.08 СЗ 2 35 км н/о +23.6 +16.3 64 +27 +27 жарко 1020.3 974.7
18 24.08 В 1 30 км 9/0
[Ci fib]
+23.2 +16.2 65 +28 +28 душно 1020.4 974.7 +26.5
19 24.08 Ю 1 24 км 5/0
[Ci fib]
+20.6 +15.2 71 +25 +25 комфорт 1021.1 975.0
20 24.08 ЮВ 1 28 км 6/4 1500 м
[Sc Ci fib]
+20.5 +15.8 74 +25 +25 комфорт 1020.9 974.8
21 24.08 ЮВ 2 28 км н/о +20.6 +15.7 73 +24 +24 комфорт 1020.9 974.8
22 24.08 ЮВ 2 30 км н/о +20.8 +15.1 70 +24 +24 комфорт 1021.1 975.0
23 24.08 ЮВ 2 30 км н/о +20.2 +14.9 72 +23 +23 комфорт 1021.0 974.8
00 25.08 Ю 1 29 км н/о +18.4 +13.5 73 +20 +20 1021.0 974.5
01 25.08 СВ 1 18 км н/о +16.7 +13.9 84 +18 +18 1021.1 974.4
02 25.08 ЮЗ 1 15 км н/о +15.2 +13.0 87 +16 +16 1021.1 974.1
03 25.08 Ю 1 13 км {дымка} н/о +15.5 +13.9 90 +16 +16 1021.2 974.3
04 25.08 штиль 0 10 км н/о +15.4 +13.8 90 +15 +15 1021.4 974.5
05 25.08 В 2 12 км н/о +16.1 +14.7 91 +16 +16 1021.3 974.5
06 25.08 ЮВ 1 28 км 9/0
[Ac As Ci fib]
+18.5 +15.6 83 +20 +22 1020.9 974.5 +14.3
07 25.08 ЮВ 3 35 км 8/0
[Ac trans Ci fib]
+21.8 +13.3 58 +24 +27 комфорт 1020.8 974.9
08 25.08 ЮВ 3 35 км 6/0
[Ci fib]
+23.0 +13.2 54 +26 +31 жарко 1020.8 975.0
09 25.08 В 2 40 км 6/0
[Ci fib]
+24.7 +13.0 48 +27 +35 жарко 1020.5 975.0
10 25.08 ЮВ 3 40 км 5/1 1500 м
[Cu med, cong Ci fib]
+25.6 +11.6 42 +27 +35 жарко 1020.1 974.7
11 25.08 Ю 3 40 км 6/1 1500 м
[Cu med, cong Ci fib]
+26.4 +11.5 39 +28 +36 жарко 1019.6 974.4
12 25.08 Ю 3 40 км 6/4 1500 м
[Cu med, cong Ci fib]
+27.5 +12.7 40 +29 +35 жарко 1019.2 974.2
13 25.08 Ю 2 35 км гроза без осадков 8/6 1500 м
[Cb calv Ci fib]
+27.6 +12.4 39 +29 +33 жарко 1019.1 974.1

 

Местоположение метеостанции Либерец (Чехия): широта 50.77 долгота 15.02 высота над уровнем моря 401 м.

В архиве по умолчанию представлена погода в Либереце за последнюю неделю. Архивные данные за месяц целиком и за предыдущие месяцы, начиная с января 2011 года, Вы можете получить, выбрав интересующий диапазон дат из раскрывающегося списка и нажав кнопку "Ввод!".


*Определитесь, кто Вы:
робот инопланетянин человек

Внимание! Время в таблицах - всемирное. Для получения местного времени необходимо прибавить поправку, которая равна 1 ч.

Смотрите также архив погоды в соседних городах и на ближайших метеорологических станциях:

Погода в Гёрлице (Германия) (45 км)
Погода на Снежке (Польша) (50 км)
Погода на Снежке (Чехия) (51 км)
Погода в Пец-под-Снежкой (Чехия) (53 км)
Погода в Еленя-Гуре (Польша) (57 км)
Погода в Лихтенхайн-Миттельндорфе (Германия) (59 км)
Погода в Докшанах (Чехия) (69 км)
Погода в Усти-над-Лабем (Чехия) (70 км)
Погода в Прага аэропорту (Чехия) (80 км)
Погода в Милешовке (Чехия) (81 км)

Пояснения к столбцам:

Ветер - указаны скорость ветра в м/с - средняя за 10 мин, порывы в срок и между сроками (в фигурных скобках) и направление, откуда дует ветер: С - северный, СВ - северо-восточный, В - восточный, ЮВ - юго-восточный, Ю - южный, ЮЗ - юго-западный, З - западный, СЗ - северо-западный.
Видимость - горизонтальная дальность видимости в метрах или километрах. При видимости от 1 до 10 км при отсутствии осадков обычно наблюдается дымка, при ухудшении видимости до 1 км и менее - туман. В сухую погоду видимость может ухудшаться дымом, пылью или мглою.
Явления - указаны атмосферные явления, наблюдавшиеся в срок или в последний час перед сроком; фигурными скобками обозначены явления, наблюдавшиеся между сроками (за 1-3 часа до срока); квадратными скобками обозначены град или гололедные отложения с указанием их диаметра в мм.
Облачность - указаны через наклонную черту общая и нижняя облачность в баллах и высота нижней границы облаков в метрах; квадратными скобками обозначены формы облаков: Ci - перистые, Cs - перисто-слоистые, Cc - перисто-кучевые, Ac - высококучевые, As - высокослоистые, Sc - слоисто-кучевые, Ns - слоисто-дождевые, Cu - кучевые, Cb - кучево-дождевые. Подробнее классификацию облаков см. в Атласе облаков (PDF).
T - Температура воздуха - температура, измеренная на высоте 2 м над землей.
Td - Температура точки росы - температура, при понижении до которой содержащийся в воздухе водяной пар достигнет насыщения.
f - Относительная влажность воздуха - влажноcть воздуха, измеренная на высоте 2 м над землей.
Te - Эффективная температура - температура, которую ощущает одетый по сезону человек в тени. Характеристика душности погоды. При расчете учитывается влияние влажности воздуха и скорости ветра на теплоощущения человека.
Tes - Эффективная температура на солнце - температура, которую ощущает человек, с поправкой на солнечный нагрев. Характеристика знойности погоды. Зависит от высоты солнца над горизонтом, облачности и скорости ветра. Ночью, в пасмурную погоду, а также при ветре 12 м/с и более поправка равна нулю.
P - Атмосферное давление - приведенное к уровню моря атмосферное давление.
Po - Атмосферное давление - измеренное на уровне метеостанции атмосферное давление.
Tmin - Минимальная температура - минимум температуры воздуха на высоте 2 м над землей.
Tmax - Максимальная температура - максимум температуры воздуха на высоте 2 м над землей.
R - Количество осадков - Количество выпавших осадков за период времени, мм. При наведении курсора мыши на число - период времени, за который выпало указанное количество осадков.
R24 - Количество осадков - Количество выпавших осадков за 24 часа, мм.
S - Снежный покров - Высота снежного покрова, см. При наведении курсора мыши на число - состояние снежного покрова и степень покрытия местности в баллах.